Location: Carri�res
(48.9069°N, 2.1792°E)
Time: 21:12:07
(UTC+00:00)

MOS 1 Rocket - Pass Details

Date: 17 January 2021
Orbit: 614 x 830 km, 97.4° (Epoch: 02 March)

Event Time Altitude Azimuth Distance (km) Brightness Sun altitude
Exits shadow 17:52:31 - 22° (NNE) 2,252 5.6 -13.9°
Reaches altitude 10° 17:53:05 10° 24° (NNE) 2,030 5.3 -14.0°
Maximum altitude 17:57:19 46° 98° (E) 835 3.3 -14.7°
Drops below altitude 10° 18:01:25 10° 172° (S) 1,971 5.7 -15.3°
Sets 18:03:39 0° 179° (S) 2,871 6.6 -15.7°
